Tracking 18840 objects as of 17-November-2017
HD Live streaming from Space Station
objects crossing your sky now

MOLNIYA 1-36

Track MOLNIYA 1-36 now!
MOLNIYA 1-36 is classified as:


NORAD ID: 9880
Int'l Code: 1977-021A
Perigee: 842.7 km
Apogee: 39,545.4 km
Inclination: 61.6 °
Period: 718.2 minutes
Semi major axis: 26565 km
RCS: 17.6752 m2 (large)
Launch date: March 24, 1977
Source: Commonwealth of Independent States (former USSR) (CIS)
Launch site: PLESETSK MISSILE AND SPACE COMPLEX (PKMTR)
aabbcc
Your satellite tracking list
Your tracking list is empty




NASA's NSSDC Master Catalog

Two Line Element Set (TLE):
1 09880U 77021A   17319.55493298 -.00001179  00000-0 -61424-4 0  9999
2 09880  61.6168 173.5743 7284506 269.9252  14.7331  2.00510558195855
Source of the keplerian elements: AFSPC